OE6NPC-WX Weather Reports


Display with metric or nautical units.
time (UTC)temp
F
wind
direction
speed
MPH
gust
MPH
rain 1hr
in
rain 24hr
in
rain mn
in
humidity
%
barometer
mb
20260507163713 59 0.0 0.0 0.00 0.00 0.00 66 961.3
20260507162709 60 0.0 0.0 0.00 0.00 0.00 65 961.6
20260507161704 60 0.0 0.0 0.00 0.00 0.00 65 961.4
20260507160700 61 0.0 0.0 0.00 0.00 0.00 68 961.0
20260507154651 63 0.0 0.0 0.00 0.00 0.00 60 960.9
20260507153646 64 0.0 0.0 0.00 0.00 0.00 59 960.7
20260507152642 64 0.0 0.0 0.00 0.00 0.00 55 960.4
20260507151638 65 0.0 0.0 0.00 0.00 0.00 54 960.2
20260507150634 66 0.0 0.0 0.00 0.00 0.00 52 960.0
20260507145629 67 0.0 0.0 0.00 0.00 0.00 52 959.8
20260507144625 67 0.0 0.0 0.00 0.00 0.00 52 959.9
20260507143620 68 0.0 0.0 0.00 0.00 0.00 50 959.8
20260507142616 69 0.0 0.0 0.00 0.00 0.00 48 959.9
20260507141612 69 0.0 0.0 0.00 0.00 0.00 47 959.8
20260507140607 70 0.0 0.0 0.00 0.00 0.00 46 959.8
20260507135603 70 0.0 0.0 0.00 0.00 0.00 45 960.0
20260507134559 71 0.0 0.0 0.00 0.00 0.00 44 959.9
20260507133554 71 0.0 0.0 0.00 0.00 0.00 43 960.0
20260507132550 71 0.0 0.0 0.00 0.00 0.00 42 960.0
20260507131546 72 0.0 0.0 0.00 0.00 0.00 40 960.1
20260507130542 72 0.0 0.0 0.00 0.00 0.00 41 960.3
20260507125538 73 0.0 0.0 0.00 0.00 0.00 42 960.3
20260507124533 73 0.0 0.0 0.00 0.00 0.00 41 960.3
20260507123528 74 0.0 0.0 0.00 0.00 0.00 41 960.4
20260507122524 74 0.0 0.0 0.00 0.00 0.00 40 960.4
20260507121519 74 0.0 0.0 0.00 0.00 0.00 40 960.4
20260507120514 73 0.0 0.0 0.00 0.00 0.00 41 960.5
20260507115510 73 0.0 0.0 0.00 0.00 0.00 41 960.6
20260507114505 73 0.0 0.0 0.00 0.00 0.00 43 960.6
20260507113500 73 0.0 0.0 0.00 0.00 0.00 44 960.6
20260507112456 73 0.0 0.0 0.00 0.00 0.00 44 960.6
20260507110447 72 0.0 0.0 0.00 0.00 0.00 44 960.6
20260507105443 72 0.0 0.0 0.00 0.00 0.00 45 960.8
20260507104439 72 0.0 0.0 0.00 0.00 0.00 42 961.0
20260507103435 72 0.0 0.0 0.00 0.00 0.00 43 961.0
20260507102430 72 0.0 0.0 0.00 0.00 0.00 44 961.0
20260507101426 72 0.0 0.0 0.00 0.00 0.00 46 961.1
20260507100422 71 0.0 0.0 0.00 0.00 0.00 46 961.3
20260507095418 71 0.0 0.0 0.00 0.00 0.00 49 961.3
20260507094414 70 0.0 0.0 0.00 0.00 0.00 48 961.4
20260507093410 70 0.0 0.0 0.00 0.00 0.00 50 961.3
20260507092405 70 0.0 0.0 0.00 0.00 0.00 52 961.2
20260507091401 69 0.0 0.0 0.00 0.00 0.00 51 961.1
20260507090357 69 0.0 0.0 0.00 0.00 0.00 50 961.2
20260507085353 70 0.0 0.0 0.00 0.00 0.00 50 961.0
20260507084349 69 0.0 0.0 0.00 0.00 0.00 52 961.0
20260507083345 69 0.0 0.0 0.00 0.00 0.00 53 961.0
20260507082341 69 0.0 0.0 0.00 0.00 0.00 53 961.0
20260507081337 68 0.0 0.0 0.00 0.00 0.00 52 960.8
20260507080332 67 0.0 0.0 0.00 0.00 0.00 55 960.7
20260507075328 67 0.0 0.0 0.00 0.00 0.00 59 960.7
20260507074324 66 0.0 0.0 0.00 0.00 0.00 60 960.5
20260507073320 65 0.0 0.0 0.00 0.00 0.00 61 960.4
20260507072316 64 0.0 0.0 0.00 0.00 0.00 63 960.4
20260507070307 62 0.0 0.0 0.00 0.00 0.00 67 960.3
20260507065306 62 0.0 0.0 0.00 0.00 0.00 69 960.2
20260507064259 61 0.0 0.0 0.00 0.00 0.00 71 960.1
20260507063255 60 0.0 0.0 0.00 0.00 0.00 71 960.2
20260507062251 60 0.0 0.0 0.00 0.00 0.00 73 960.1
20260507061246 59 0.0 0.0 0.00 0.00 0.00 74 959.9
20260507060242 59 0.0 0.0 0.00 0.00 0.00 74 960.0
20260507055238 59 0.0 0.0 0.00 0.00 0.00 75 959.9
20260507054234 58 0.0 0.0 0.00 0.00 0.00 74 959.7
20260507053230 58 0.0 0.0 0.00 0.00 0.00 75 959.5
20260507052226 58 0.0 0.0 0.00 0.00 0.00 74 959.3
20260507051221 58 0.0 0.0 0.00 0.00 0.00 75 959.4
20260507050217 58 0.0 0.0 0.00 0.00 0.00 75 959.3
20260507045213 58 0.0 0.0 0.00 0.00 0.00 75 959.3
20260507044209 58 0.0 0.0 0.00 0.00 0.00 75 959.2
20260507043204 57 0.0 0.0 0.00 0.00 0.00 75 959.0
20260507042200 58 0.0 0.0 0.00 0.00 0.00 74 958.8
20260507041156 58 0.0 0.0 0.00 0.00 0.00 74 958.7
20260507040151 58 0.0 0.0 0.00 0.00 0.00 74 958.7
20260507035147 58 0.0 0.0 0.00 0.00 0.00 73 958.5
20260507034142 58 0.0 0.0 0.00 0.00 0.00 74 958.3
20260507033138 58 0.0 0.0 0.00 0.00 0.00 73 958.1
20260507032133 58 0.0 0.0 0.00 0.00 0.00 74 958.1
20260507031129 58 0.0 0.0 0.00 0.00 0.00 74 958.1
20260507030124 58 0.0 0.0 0.00 0.00 0.00 73 958.2
20260507025120 58 0.0 0.0 0.00 0.00 0.00 73 958.2
20260507024115 58 0.0 0.0 0.00 0.00 0.00 72 957.9
20260507023111 58 0.0 0.0 0.00 0.00 0.00 73 958.1
20260507022106 58 0.0 0.0 0.00 0.00 0.00 72 958.1
20260507021101 58 0.0 0.0 0.00 0.00 0.00 73 958.0
20260507020057 58 0.0 0.0 0.00 0.00 0.00 73 958.0
20260507015052 58 0.0 0.0 0.00 0.00 0.00 73 958.0
20260507014048 58 0.0 0.0 0.00 0.00 0.00 73 957.9
20260507013044 58 0.0 0.0 0.00 0.00 0.00 73 957.8
20260507012040 58 0.0 0.0 0.00 0.00 0.00 73 957.9
20260507011035 58 0.0 0.0 0.00 0.00 0.00 73 957.8
20260507010031 58 0.0 0.0 0.00 0.00 0.00 73 957.9
20260507005026 58 0.0 0.0 0.00 0.00 0.00 73 957.8
20260507004022 58 0.0 0.0 0.00 0.00 0.00 73 957.8
20260507003017 58 0.0 0.0 0.00 0.00 0.00 72 957.8
20260507002013 58 0.0 0.0 0.00 0.00 0.00 72 957.7
20260507001008 58 0.0 0.0 0.00 0.00 0.00 71 957.8
20260507000003 58 0.0 0.0 0.00 0.00 0.00 72 957.7
20260506234958 58 0.0 0.0 0.00 0.00 0.00 72 957.7
20260506233954 58 0.0 0.0 0.00 0.00 0.00 72 957.8
20260506232949 58 0.0 0.0 0.00 0.00 0.00 73 957.8
20260506231944 58 0.0 0.0 0.00 0.00 0.00 72 957.7
20260506230940 58 0.0 0.0 0.00 0.00 0.00 71 957.8
20260506225935 58 0.0 0.0 0.00 0.00 0.00 71 957.8
20260506224931 58 0.0 0.0 0.00 0.00 0.00 71 957.6
20260506223926 59 0.0 0.0 0.00 0.00 0.00 70 957.6
20260506222922 59 0.0 0.0 0.00 0.00 0.00 69 957.8
20260506221918 59 0.0 0.0 0.00 0.00 0.00 68 957.9
20260506220914 59 0.0 0.0 0.00 0.00 0.00 68 957.8
20260506215910 60 0.0 0.0 0.00 0.00 0.00 67 957.8
20260506214906 60 0.0 0.0 0.00 0.00 0.00 67 957.6
20260506213902 60 0.0 0.0 0.00 0.00 0.00 67 957.4
20260506212857 60 0.0 0.0 0.00 0.00 0.00 66 957.3
20260506210849 60 0.0 0.0 0.00 0.00 0.00 66 957.5
20260506205845 61 0.0 0.0 0.00 0.00 0.00 65 957.3
20260506204841 61 0.0 0.0 0.00 0.00 0.00 65 957.2
20260506203837 61 0.0 0.0 0.00 0.00 0.00 64 957.2
20260506202833 61 0.0 0.0 0.00 0.00 0.00 64 957.1
20260506201829 61 0.0 0.0 0.00 0.00 0.00 64 957.0
20260506200825 61 0.0 0.0 0.00 0.00 0.00 64 957.0
20260506195820 61 0.0 0.0 0.00 0.00 0.00 63 957.1
20260506194816 62 0.0 0.0 0.00 0.00 0.00 63 957.0
20260506193812 62 0.0 0.0 0.00 0.00 0.00 61 957.1
20260506192808 62 0.0 0.0 0.00 0.00 0.00 61 957.2
20260506191804 63 0.0 0.0 0.00 0.00 0.00 60 957.1
20260506190800 63 0.0 0.0 0.00 0.00 0.00 60 957.1
20260506185755 64 0.0 0.0 0.00 0.00 0.00 58 956.8
20260506184751 64 0.0 0.0 0.00 0.00 0.00 58 956.6
20260506183747 64 0.0 0.0 0.00 0.00 0.00 57 956.5
20260506182743 65 0.0 0.0 0.00 0.00 0.00 57 956.3
20260506181739 65 0.0 0.0 0.00 0.00 0.00 56 956.2
20260506180735 66 0.0 0.0 0.00 0.00 0.00 55 956.2
20260506175730 66 0.0 0.0 0.00 0.00 0.00 54 956.2
20260506174726 67 0.0 0.0 0.00 0.00 0.00 52 956.1
20260506173722 67 0.0 0.0 0.00 0.00 0.00 52 956.0
20260506172718 68 0.0 0.0 0.00 0.00 0.00 50 956.0
20260506171714 68 0.0 0.0 0.00 0.00 0.00 49 955.8
20260506170709 69 0.0 0.0 0.00 0.00 0.00 49 955.9
20260506165705 69 0.0 0.0 0.00 0.00 0.00 48 955.9
20260506164701 70 0.0 0.0 0.00 0.00 0.00 47 955.9